Daleville, AL

8:49 AM CDT on September 26, 2016 (GMT -0500)
Cairns Army Air Field

Weather History for KOZR - October, 2013

Change the Weather History Date:

Monday, October 7, 2013

  Actual Average Record
Temperature  
Mean Temperature 71 °F -  
Max Temperature 79 °F 77 °F 89 °F (1998)
Min Temperature 64 °F 58 °F 44 °F (2001)
Cooling Degree Days 6    
Growing Degree Days 21 (Base 50)    
Moisture  
Dew Point 67 °F    
Average Humidity 91    
Maximum Humidity 100    
Minimum Humidity 62    
Precipitation  
Precipitation 1.18 in - - ()
Sea Level Pressure  
Sea Level Pressure 29.85 in    
Wind  
Wind Speed 5 mph (North)    
Max Wind Speed 15 mph    
Max Gust Speed 21 mph    
Visibility 8 miles    
Events Rain    
Averages and records for this station are not official NWS values.
T = Trace of Precipitation, MM = Missing Value Source: NWS Daily Summary

Daily Weather History Graph

Daily Weather History Graph

Search for Another Location

Airport or City:

Trip Planner

Search our weather history database for the weather conditions in past years. The results will help you decide how hot, cold, wet, or windy it might be!

Date:

Astronomy

Oct. 07, 2013 Rise Set
Actual Time 6:40 AM CDT 6:20 PM CDT
Civil Twilight 6:16 AM CDT 6:44 PM CDT
Nautical Twilight 5:48 AM CDT 7:12 PM CDT
Astronomical Twilight 5:20 AM CDT 7:40 PM CDT
Moon 9:17 AM CDT (10/7) 8:17 PM CDT (10/7)
Length of Visible Light 12h 28m
Length of Day
11h 39m
Waxing Crescent, 9% of the Moon is Illuminated
Oct 7
Waxing Crescent
Oct 11
First Quarter
Oct 18
Full
Oct 26
Last Quarter
Nov 3
New

Hourly Weather History & Observations

Time (CDT) Temp. Dew Point Humidity Pressure Visibility Wind Dir Wind Speed Gust Speed Precip Events Conditions
12:58 AM 72.1 °F 71.6 °F 98% 29.84 in 10.0 mi Calm Calm - N/A   Overcast
1:03 AM 71.6 °F 71.6 °F 100% 29.84 in 10.0 mi NNE 1.2 mph - N/A   Overcast
1:16 AM 71.6 °F 71.6 °F 100% 29.84 in 10.0 mi Calm Calm - N/A Rain Light Rain
1:26 AM 71.6 °F 71.6 °F 100% 29.84 in 7.0 mi NNE 3.5 mph - N/A Rain Light Rain
1:31 AM 73.4 °F 71.6 °F 94% 29.83 in 9.0 mi NE 3.5 mph - N/A Rain Light Rain
1:37 AM 73.4 °F 71.6 °F 94% 29.83 in 10.0 mi NE 2.3 mph - N/A   Overcast
1:42 AM 71.6 °F 71.6 °F 100% 29.83 in 10.0 mi NNE 2.3 mph - N/A   Mostly Cloudy
1:58 AM 72.3 °F 71.8 °F 98% 29.83 in 10.0 mi NNE 2.3 mph - 0.01 in   Mostly Cloudy
2:31 AM 71.6 °F 71.6 °F 100% 29.82 in 8.0 mi North 2.3 mph - N/A Rain Light Rain
2:46 AM 71.6 °F 71.6 °F 100% 29.82 in 10.0 mi North 4.6 mph - N/A   Light Drizzle
2:47 AM 71.6 °F 71.6 °F 100% 29.82 in 10.0 mi North 4.6 mph - N/A   Overcast
2:54 AM 71.6 °F 71.6 °F 100% 29.81 in 10.0 mi NE 3.5 mph - N/A Rain Light Rain
2:58 AM 72.3 °F 71.6 °F 98% 29.81 in 5.0 mi NE 3.5 mph - 0.01 in Rain Light Rain
3:03 AM 71.6 °F 71.6 °F 100% 29.81 in 2.0 mi ESE 4.6 mph - N/A Rain Heavy Rain
3:06 AM 71.6 °F 71.6 °F 100% 29.81 in 1.2 mi ENE 4.6 mph - N/A Rain Heavy Rain
3:11 AM 71.6 °F 71.6 °F 100% 29.81 in 1.5 mi NE 6.9 mph - N/A Rain Heavy Rain
3:16 AM 71.6 °F 71.6 °F 100% 29.81 in 2.0 mi NNE 4.6 mph - N/A Rain Rain
3:21 AM 71.6 °F 71.6 °F 100% 29.81 in 4.0 mi Variable 2.3 mph - N/A Rain Light Rain
3:33 AM 71.6 °F 71.6 °F 100% 29.81 in 10.0 mi North 3.5 mph - N/A   Overcast
3:38 AM 71.6 °F 71.6 °F 100% 29.81 in 10.0 mi NNE 2.3 mph - N/A   Overcast
3:43 AM 71.6 °F 71.6 °F 100% 29.81 in 10.0 mi ENE 2.3 mph - N/A   Overcast
3:45 AM 71.6 °F 71.6 °F 100% 29.81 in 10.0 mi ENE 3.5 mph - N/A   Overcast
3:55 AM 71.6 °F 71.6 °F 100% 29.81 in 10.0 mi East 2.3 mph - N/A   Overcast
3:58 AM 72.1 °F 71.8 °F 99% 29.81 in 10.0 mi East 2.3 mph - 0.34 in   Overcast
4:06 AM 71.6 °F 71.6 °F 100% 29.81 in 9.0 mi Variable 4.6 mph - N/A Rain Light Rain
4:08 AM 71.6 °F 71.6 °F 100% 29.81 in 5.0 mi WNW 9.2 mph - N/A Rain Light Rain
4:18 AM 69.8 °F 68.0 °F 94% 29.82 in 1.8 mi NW 15.0 mph - N/A Rain Heavy Rain
4:28 AM 68.0 °F 68.0 °F 100% 29.82 in 2.0 mi NW 10.4 mph - N/A Rain Heavy Rain
4:43 AM 68.0 °F 66.2 °F 94% 29.83 in 1.5 mi NW 11.5 mph 18.4 mph N/A Rain Heavy Rain
4:48 AM 66.2 °F 66.2 °F 100% 29.83 in 1.5 mi NW 12.7 mph 19.6 mph N/A Rain Heavy Rain
4:53 AM 66.2 °F 66.2 °F 100% 29.83 in 1.2 mi NW 12.7 mph 19.6 mph N/A Rain Heavy Rain
4:58 AM 66.2 °F 66.2 °F 100% 29.83 in 1.5 mi NW 12.7 mph - 0.73 in Rain Heavy Rain
5:03 AM 66.2 °F 66.2 °F 100% 29.83 in 2.0 mi NW 11.5 mph - N/A Rain Heavy Rain
5:08 AM 66.2 °F 66.2 °F 100% 29.83 in 3.0 mi NW 13.8 mph - N/A Rain Rain
5:22 AM 64.4 °F 64.4 °F 100% 29.84 in 10.0 mi NW 15.0 mph - N/A   Overcast
5:58 AM 64.2 °F 63.5 °F 98% 29.85 in 10.0 mi NNW 15.0 mph 20.7 mph 0.09 in   Overcast
6:33 AM 64.4 °F 62.6 °F 94% 29.86 in 10.0 mi North 9.2 mph - N/A   Overcast
6:43 AM 64.4 °F 62.6 °F 94% 29.86 in 10.0 mi North 9.2 mph - N/A   Overcast
6:58 AM 64.0 °F 63.0 °F 96% 29.86 in 10.0 mi North 9.2 mph - N/A   Overcast
7:38 AM 64.4 °F 62.6 °F 94% 29.87 in 10.0 mi North 9.2 mph - N/A   Overcast
7:43 AM 64.4 °F 62.6 °F 94% 29.87 in 10.0 mi NNW 11.5 mph - N/A   Overcast
7:48 AM 64.4 °F 62.6 °F 94% 29.87 in 10.0 mi North 10.4 mph - N/A   Overcast
7:58 AM 64.0 °F 62.6 °F 95% 29.87 in 10.0 mi North 10.4 mph - N/A   Overcast
8:58 AM 64.2 °F 62.4 °F 94% 29.88 in 10.0 mi NNW 9.2 mph - N/A   Overcast
9:08 AM 64.4 °F 62.6 °F 94% 29.89 in 10.0 mi NNW 9.2 mph - N/A   Overcast
9:23 AM 64.4 °F 62.6 °F 94% 29.89 in 10.0 mi NNW 10.4 mph - N/A   Overcast
9:58 AM 65.1 °F 62.6 °F 92% 29.89 in 10.0 mi NNW 11.5 mph - N/A   Overcast
10:58 AM 67.3 °F 63.0 °F 86% 29.89 in 10.0 mi North 9.2 mph - N/A   Overcast
11:03 AM 68.0 °F 62.6 °F 83% 29.89 in 10.0 mi North 9.2 mph - N/A   Overcast
11:28 AM 69.8 °F 64.4 °F 83% 29.88 in 10.0 mi North 6.9 mph - N/A   Overcast
11:58 AM 72.9 °F 64.9 °F 76% 29.88 in 10.0 mi NE 6.9 mph - N/A   Mostly Cloudy
12:13 PM 73.4 °F 66.2 °F 78% 29.88 in 10.0 mi Variable 5.8 mph - N/A   Mostly Cloudy
12:58 PM 75.7 °F 66.0 °F 72% 29.86 in 10.0 mi NNW 6.9 mph - N/A   Overcast
1:58 PM 77.2 °F 65.5 °F 67% 29.85 in 10.0 mi North 10.4 mph - N/A   Overcast
2:58 PM 77.2 °F 65.5 °F 67% 29.84 in 10.0 mi NW 8.1 mph - N/A   Overcast
3:13 PM 77.0 °F 64.4 °F 65% 29.84 in 10.0 mi NW 12.7 mph - N/A   Overcast
3:58 PM 78.4 °F 64.6 °F 62% 29.84 in 10.0 mi NW 10.4 mph - N/A   Overcast
4:58 PM 76.6 °F 62.6 °F 62% 29.85 in 10.0 mi NNW 10.4 mph - N/A   Mostly Cloudy
5:58 PM 73.4 °F 61.7 °F 67% 29.87 in 10.0 mi NNW 8.1 mph - N/A   Partly Cloudy
6:58 PM 69.6 °F 60.1 °F 72% 29.89 in 10.0 mi NW 8.1 mph - N/A   Clear
7:58 PM 68.4 °F 59.5 °F 73% 29.93 in 10.0 mi NW 5.8 mph - N/A   Overcast
8:58 PM 66.7 °F 57.9 °F 73% 29.94 in 10.0 mi NW 10.4 mph - N/A   Mostly Cloudy
9:58 PM 65.1 °F 57.2 °F 75% 29.96 in 10.0 mi NNW 5.8 mph - N/A   Mostly Cloudy
10:58 PM 64.4 °F 56.5 °F 75% 29.96 in 10.0 mi NNW 6.9 mph - N/A   Scattered Clouds
11:58 PM 65.1 °F 55.8 °F 72% 29.94 in 10.0 mi NNW 8.1 mph - N/A   Overcast